星链-32326 (STARLINK-32326)

导读 | 豆包AI

STARLINK-32326是美国SpaceX公司星链计划中的卫星,于2024年10月26日发射升空。星链项目旨在构建全球卫星互联网星座,为全球偏远地区、海洋空域等提供高速低延迟的网络接入服务。该卫星加入低轨星座网络后,进一步扩充了星链系统的覆盖能力与服务容量,推动全球卫星互联网的部署进程。

Basic Information
目录编号:
61674
目录名称:
STARLINK-32326
国际标识:
2024-193P
轨道中心:
EARTH
卫星名称:
星链-32326
卫星全名:
星链-32326 (STARLINK-32326)
卫星状态:
在轨 (已飞行552 天)
发射日期:
2024-10-26 UTC
国别 :
美国 (US)
星等 :
--
Orbit Information
数据来源 国际轨道数据 AOE轨道数据
星历时间 2026-04-30T20:18:26+0800
16小时前
查看轨道信息
2026-04-28T07:00:00+0800
3天前
查看轨道信息
半长轴 6853.409km 6853.313km
偏心率 0.0001398 0.0001566
轨道倾角 53.161° 53.159°
近地点辐角 96.813° 64.426°
升交点赤经 210.102° 221.969°
平近点角 263.303° 256.127°
近地点 474.313km 474.102km
远地点 476.231km 476.25km
周期 94.107分钟 94.105分钟
每日圈数 15.301812 15.302131
Detailed Information
固有亮度:
5
最大亮度:
2.5
卫星平台:
Starlink V1.0
覆盖范围:
全球
运营商:
太空探索技术公司
运营商所在国:
美国
制造商(研发单位):
太空探索技术公司
制造商所在国:
美国
使用方式:
暂无
Satellite Introduction
Starlink 计划是 SpaceX 推出的全球卫星互联网项目,通过发射低轨道卫星,为全球尤其是偏远地区提供高速、低延迟的互联网服务。自 2019 年起,Starlink 已部署数千颗卫星,旨在缩小全球数字鸿沟,推动互联网普及。该项目还为军事、航空等行业提供通信支持,带来广泛经济效益。
2D Orbit Map
3D Orbit Map
Orbit Altitude Analysis Chart
Orbit Inclination Analysis Chart
Orbit Comprehensive Analysis Chart
View Comprehensive Chart